Weather History for Aurillac, France

Change the Weather History Date:

Monday, August 18, 2014

  Actual Average Record
Temperature  
Mean Temperature 58 °F -  
Max Temperature 71 °F - - ()
Min Temperature 46 °F - - ()
Degree Days  
Heating Degree Days 6    
Growing Degree Days 8 (Base 50)    
Moisture  
Dew Point 52 °F    
Average Humidity 74    
Maximum Humidity 100    
Minimum Humidity 48    
Precipitation  
Precipitation 0.01 in - - ()
Sea Level Pressure  
Sea Level Pressure 29.98 in    
Wind  
Wind Speed 4 mph ()    
Max Wind Speed 7 mph    
Max Gust Speed -    
Visibility 6.8 miles    
Events      
T = Trace of Precipitation, MM = Missing Value Source: Averaged Metar Reports

Daily Weather History Graph

Daily Weather History Graph

Search for Another Location

Airport:

Trip Planner

Search our weather history database for the weather conditions in past years. The results will help you decide how hot, cold, wet, or windy it might be!

Date:

Astronomy

Aug. 18, 2014 Rise Set
Actual Time 6:55 AM CEST 8:52 PM CEST
Civil Twilight 6:23 AM CEST 9:23 PM CEST
Nautical Twilight 5:45 AM CEST 10:02 PM CEST
Astronomical Twilight 5:02 AM CEST 10:44 PM CEST
Moon 12:48 AM CEST (8/18) 3:44 PM CEST (8/18)
Length of Visible Light 14h 59m
Length of Day
13h 56m
Last Quarter, 41% of the Moon is Illuminated
Aug 18
Last Quarter
Aug 25
New
Sep 2
First Quarter
Sep 9
Full
Sep 16
Last Quarter

Hourly Weather History & Observations

Time (CEST) Temp. Windchill Dew Point Humidity Pressure Visibility Wind Dir Wind Speed Gust Speed Precip Events Conditions
12:00 AM 53 °F - 51 °F 90% 30.04 in 9 mi ENE 3.5 mph - -   Clear
12:00 AM 53.6 °F - 51.8 °F 94% 30.04 in 6.2 mi ENE 3.5 mph - N/A   Unknown
1:00 AM 52 °F - 50 °F 89% 30.04 in 14 mi ENE 3.5 mph - -   Clear
1:30 AM 51.8 °F - 50.0 °F 94% 30.04 in 6.2 mi East 3.5 mph - N/A   Unknown
2:00 AM 50 °F - 49 °F 94% 30.04 in 9 mi ESE 3.5 mph - -   Clear
2:00 AM 50.0 °F - 48.2 °F 94% 30.04 in 6.2 mi ESE 3.5 mph - N/A   Unknown
2:30 AM 50.0 °F - 48.2 °F 94% 30.01 in 6.2 mi East 4.6 mph - N/A   Unknown
3:00 AM 49 °F - 48 °F 95% 30.03 in 7 mi East 3.5 mph - -   Clear
3:00 AM 50.0 °F - 48.2 °F 94% 30.01 in 6.2 mi East 3.5 mph - N/A   Unknown
3:30 AM 48.2 °F - 46.4 °F 93% 30.01 in 6.2 mi East 4.6 mph - N/A   Unknown
4:00 AM 49 °F - 48 °F 93% 30.02 in 10 mi East 6.9 mph - -   Clear
4:00 AM 48.2 °F - 48.2 °F 100% 30.01 in 6.2 mi East 6.9 mph - N/A   Unknown
4:30 AM 48.2 °F - 46.4 °F 93% 30.01 in 6.2 mi East 5.8 mph - N/A   Unknown
5:00 AM 48 °F - 47 °F 95% 30.03 in 9 mi East 5.8 mph - -   Clear
5:00 AM 48.2 °F - 46.4 °F 93% 30.01 in 6.2 mi East 5.8 mph - N/A   Unknown
5:30 AM 46.4 °F 43.5 °F 46.4 °F 100% 30.01 in 6.2 mi East 5.8 mph - N/A   Unknown
6:00 AM 47 °F - 46 °F 93% 30.02 in 7 mi East 6.9 mph - -   Clear
6:00 AM 46.4 °F 42.9 °F 46.4 °F 100% 30.01 in 6.2 mi East 6.9 mph - N/A   Unknown
6:30 AM 48.2 °F - 46.4 °F 93% 30.01 in 6.2 mi East 5.8 mph - N/A   Unknown
7:00 AM 47 °F - 46 °F 92% 30.02 in 6 mi East 3.5 mph - -   Clear
7:30 AM 46.4 °F 44.3 °F 46.4 °F 100% 30.01 in 6.2 mi East 4.6 mph - N/A   Unknown
8:00 AM 50.0 °F - 48.2 °F 94% 30.01 in 6.2 mi East 5.8 mph - N/A   Unknown
8:30 AM 51.8 °F - 50.0 °F 94% 30.01 in 6.2 mi East 3.5 mph - N/A   Unknown
9:00 AM 55 °F - 52 °F 84% 29.98 in 25 mi East 4.6 mph - -   Clear
9:00 AM 55.4 °F - 51.8 °F 88% 30.01 in 6.2 mi East 4.6 mph - N/A   Partly Cloudy
9:30 AM 57.2 °F - 51.8 °F 82% 30.01 in 6.2 mi Variable 3.5 mph - N/A   Mostly Cloudy
10:00 AM 61 °F - 54 °F 70% 29.96 in 22 mi East 1.2 mph - -   Clear
10:00 AM 60.8 °F - 53.6 °F 77% 30.01 in 6.2 mi Variable 1.2 mph - N/A   Unknown
10:30 AM 62.6 °F - 53.6 °F 72% 30.01 in 6.2 mi Variable 2.3 mph - N/A   Unknown
11:00 AM 64 °F - 52 °F 56% 29.96 in 25 mi West 4.6 mph - -   Clear
11:00 AM 64.4 °F - 51.8 °F 64% 30.01 in 6.2 mi West 4.6 mph - N/A   Mostly Cloudy
11:30 AM 66.2 °F - 53.6 °F 64% 30.01 in 6.2 mi Variable 5.8 mph - N/A   Mostly Cloudy
12:00 PM 67 °F - 52 °F 49% 29.94 in 12 mi South 4.6 mph - -   Clear
12:00 PM 66.2 °F - 51.8 °F 60% 30.01 in 6.2 mi South 4.6 mph - N/A   Mostly Cloudy
12:30 PM 66.2 °F - 51.8 °F 60% 30.01 in 6.2 mi South 6.9 mph - N/A   Scattered Clouds
1:00 PM 66 °F - 53 °F 52% 29.94 in 25 mi WSW 6.9 mph - -   Clear
1:00 PM 66.2 °F - 51.8 °F 60% 30.01 in 6.2 mi WSW 6.9 mph - N/A   Mostly Cloudy
1:30 PM 68.0 °F - 51.8 °F 56% 30.01 in 6.2 mi SSW 5.8 mph - N/A   Mostly Cloudy
2:00 PM 67 °F - 53 °F 51% 29.93 in 25 mi SSW 6.9 mph - -   Clear
2:00 PM 68.0 °F - 53.6 °F 60% 30.01 in 6.2 mi SSW 6.9 mph - N/A   Partly Cloudy
2:30 PM 68.0 °F - 53.6 °F 60% 29.98 in 6.2 mi Variable 4.6 mph - N/A   Partly Cloudy
3:00 PM 69 °F - 54 °F 48% 29.90 in 12 mi WSW 4.6 mph - -   Clear
3:00 PM 69.8 °F - 53.6 °F 56% 29.98 in 6.2 mi WSW 4.6 mph - N/A   Scattered Clouds
3:30 PM 69.8 °F - 53.6 °F 56% 29.98 in 6.2 mi SW 5.8 mph - N/A   Partly Cloudy
4:00 PM 69 °F - 54 °F 49% 29.89 in 25 mi SSW 5.8 mph - -   Clear
4:00 PM 69.8 °F - 53.6 °F 56% 29.98 in 6.2 mi SSW 5.8 mph - N/A   Partly Cloudy
4:30 PM 71.6 °F - 57.2 °F 60% 29.98 in 6.2 mi WSW 5.8 mph - N/A   Partly Cloudy
5:00 PM 69.8 °F - 55.4 °F 60% 29.95 in 6.2 mi South 3.5 mph - N/A   Partly Cloudy
5:30 PM 69.8 °F - 55.4 °F 60% 29.95 in 6.2 mi Variable 2.3 mph - N/A   Partly Cloudy
6:00 PM 71 °F - 56 °F 49% 29.86 in 28 mi SW 6.9 mph - -   Clear
6:00 PM 71.6 °F - 55.4 °F 57% 29.95 in 6.2 mi SW 6.9 mph - N/A   Scattered Clouds
7:00 PM 70 °F - 54 °F 48% 29.86 in 34 mi NW 3.5 mph - -   Clear
7:00 PM 69.8 °F - 55.4 °F 60% 29.95 in 6.2 mi NW 3.5 mph - N/A   Mostly Cloudy
7:30 PM 69.8 °F - 57.2 °F 64% 29.92 in 6.2 mi West 4.6 mph - N/A   Partly Cloudy
8:00 PM 68 °F - 55 °F 54% 29.86 in 34 mi NW 5.8 mph - -   Clear
8:00 PM 68.0 °F - 55.4 °F 64% 29.92 in 6.2 mi NW 5.8 mph - N/A   Unknown
8:30 PM 66.2 °F - 55.4 °F 68% 29.92 in 6.2 mi NW 3.5 mph - N/A   Unknown
9:00 PM 65 °F - 55 °F 62% 29.88 in 25 mi NW 5.8 mph - -   Clear
9:00 PM 64.4 °F - 55.4 °F 73% 29.95 in 6.2 mi NW 5.8 mph - N/A   Unknown
9:30 PM 64.4 °F - 53.6 °F 68% 29.92 in 6.2 mi North 3.5 mph - N/A   Unknown
10:00 PM 62 °F - 53 °F 65% 29.88 in 34 mi NW 4.6 mph - -   Clear
10:00 PM 62.6 °F - 53.6 °F 72% 29.92 in 6.2 mi NW 4.6 mph - N/A   Unknown
10:30 PM 60.8 °F - 53.6 °F 77% 29.95 in 6.2 mi WNW 4.6 mph - N/A   Unknown
11:00 PM 60 °F - 54 °F 74% 29.91 in 31 mi West 4.6 mph - -   Clear
11:00 PM 60.8 °F - 53.6 °F 77% 29.95 in 6.2 mi West 4.6 mph - N/A   Partly Cloudy
11:30 PM 59.0 °F - 53.6 °F 82% 29.95 in 6.2 mi WNW 5.8 mph - N/A   Scattered Clouds